Location: New York
(40.7127°N, 74.0060°W)
Time: 02:52:46
(UTC-04:00)

UNISAT 6 - Pass Details

Date: 28 April 2024
Orbit: 593 x 668 km, 97.7° (Epoch: 20 May)

Event Time Altitude Azimuth Distance (km) Brightness Sun altitude
Rises 03:23:27 0° 112° (ESE) 2,900 ? -24.9°
Maximum altitude 03:28:20 10° 62° (ENE) 1,971 ? -24.3°
Drops below altitude 10° 03:28:39 10° 58° (ENE) 1,974 ? -24.3°
Sets 03:33:10 0° 13° (NNE) 2,865 ? -23.7°
